Location: Aulnoy
(48.8410°N, 3.0967°E)
Time: 22:58:33
(UTC+00:00)

PSLV R/B - Pass Details

Date: 09 February 2023
Orbit: 491 x 557 km, 97.8° (Epoch: 21 March)

Event Time Altitude Azimuth Distance (km) Brightness Sun altitude
Rises 18:06:35 0° 155° (SSE) 2,585 7.1 -11.7°
Reaches altitude 10° 18:08:39 10° 151° (SSE) 1,715 6.1 -12.0°
Maximum altitude 18:12:16 58° 72° (ENE) 606 3.7 -12.6°
Drops below altitude 10° 18:16:01 10° 354° (N) 1,767 6.4 -13.2°
Sets 18:18:10 0° 350° (N) 2,674 7.4 -13.6°
